When you browse on this site, cookies collect data to enhance your experience and personalize the content and advertising you see.
Visit our Privacy Policy to learn more. By continuing to use the site, you agree to this use of cookies and data.
  • In Lithuania
  • List of Countries
  • For 7 days
  • Water Temperature
  • Satellite Maps
  • Weather Map
  • Weather Widgets
  • user-avatar
    Login

    Hourly Weather Djelfa

    Today, 23 May, Thursday

    Time Temperature Precipitation Wind Pressure Humidity
    00:00 +18°C° 0 mm 2 mps 666 mmHg 44%
    01:00 +17°C° 0 mm 2 mps 666 mmHg 48%
    02:00 +17°C° 0 mm 2 mps 666 mmHg 52%
    03:00 +16°C° 0 mm 2 mps 665 mmHg 55%
    04:00 +17°C° 0 mm 2 mps 666 mmHg 57%
    05:00 +17°C° 0 mm 2 mps 666 mmHg 58%
    06:00 +18°C° 0 mm 2 mps 666 mmHg 58%
    07:00 +19°C° 0 mm 2 mps 666 mmHg 54%
    08:00 +21°C° 0 mm 3 mps 667 mmHg 51%
    09:00 +22°C° 0 mm 4 mps 667 mmHg 48%
    10:00 +23°C° 0.4 mm 4 mps 667 mmHg 45%
    11:00 +25°C° 0.4 mm 4 mps 667 mmHg 42%
    12:00 +26°C° 0.4 mm 4 mps 667 mmHg 39%
    13:00 +26°C° 0.2 mm 4 mps 666 mmHg 39%
    14:00 +26°C° 0.2 mm 4 mps 666 mmHg 39%
    15:00 +26°C° 0.2 mm 4 mps 666 mmHg 39%
    16:00 +25°C° 0 mm 3 mps 665 mmHg 41%
    17:00 +25°C° 0 mm 3 mps 665 mmHg 43%
    18:00 +25°C° 0 mm 3 mps 665 mmHg 45%
    19:00 +23°C° 0.2 mm 2 mps 665 mmHg 50%
    20:00 +22°C° 0.2 mm 1 mps 665 mmHg 54%
    21:00 +21°C° 0.2 mm 1 mps 665 mmHg 59%
    22:00 +21°C° 0 mm 1 mps 665 mmHg 59%
    23:00 +20°C° 0 mm 1 mps 664 mmHg 60%

    Tomorrow, 24 May, Friday

    Time Temperature Precipitation Wind Pressure Humidity
    00:00 +19°C° 0 mm 2 mps 664 mmHg 60%
    01:00 +19°C° 0 mm 2 mps 664 mmHg 63%
    02:00 +18°C° 0 mm 2 mps 664 mmHg 67%
    03:00 +18°C° 0 mm 2 mps 663 mmHg 70%
    04:00 +18°C° 0 mm 2 mps 663 mmHg 69%
    05:00 +18°C° 0 mm 2 mps 663 mmHg 68%
    06:00 +18°C° 0 mm 2 mps 663 mmHg 67%
    07:00 +20°C° 0 mm 3 mps 664 mmHg 60%
    08:00 +22°C° 0 mm 4 mps 664 mmHg 54%
    09:00 +23°C° 0 mm 5 mps 664 mmHg 47%
    10:00 +25°C° 0 mm 4 mps 664 mmHg 42%
    11:00 +27°C° 0 mm 3 mps 664 mmHg 37%
    12:00 +28°C° 0 mm 3 mps 663 mmHg 32%
    13:00 +28°C° 0 mm 3 mps 663 mmHg 28%
    14:00 +28°C° 0 mm 3 mps 662 mmHg 25%
    15:00 +29°C° 0 mm 4 mps 662 mmHg 22%
    16:00 +28°C° 0 mm 4 mps 661 mmHg 22%
    17:00 +28°C° 0 mm 4 mps 661 mmHg 22%
    18:00 +27°C° 0 mm 4 mps 661 mmHg 22%
    19:00 +26°C° 0 mm 5 mps 661 mmHg 25%
    20:00 +23°C° 0 mm 7 mps 661 mmHg 29%
    21:00 +21°C° 0 mm 8 mps 661 mmHg 32%
    22:00 +21°C° 0.3 mm 6 mps 661 mmHg 39%
    23:00 +20°C° 0.3 mm 5 mps 661 mmHg 45%

    Day after tomorrow, 25 May, Saturday

    Time Temperature Precipitation Wind Pressure Humidity
    00:00 +19°C° 0.3 mm 3 mps 661 mmHg 51%
    01:00 +19°C° 0.1 mm 4 mps 660 mmHg 49%
    02:00 +19°C° 0.1 mm 4 mps 660 mmHg 48%
    03:00 +17°C° 0.1 mm 5 mps 660 mmHg 46%
    04:00 +17°C° 0 mm 5 mps 660 mmHg 44%
    05:00 +16°C° 0 mm 5 mps 660 mmHg 41%
    06:00 +16°C° 0 mm 6 mps 660 mmHg 39%
    07:00 +17°C° 0 mm 6 mps 660 mmHg 39%
    08:00 +18°C° 0 mm 7 mps 661 mmHg 38%
    09:00 +20°C° 0 mm 7 mps 661 mmHg 38%
    10:00 +20°C° 0 mm 7 mps 661 mmHg 35%
    11:00 +21°C° 0 mm 8 mps 661 mmHg 32%
    12:00 +22°C° 0 mm 8 mps 661 mmHg 29%
    13:00 +22°C° 0 mm 8 mps 661 mmHg 30%
    14:00 +22°C° 0 mm 9 mps 661 mmHg 31%
    15:00 +21°C° 0 mm 9 mps 661 mmHg 31%
    16:00 +19°C° 0 mm 9 mps 661 mmHg 36%
    17:00 +18°C° 0 mm 9 mps 661 mmHg 41%
    18:00 +17°C° 0 mm 9 mps 661 mmHg 46%
    19:00 +16°C° 0 mm 8 mps 661 mmHg 53%
    20:00 +15°C° 0 mm 8 mps 661 mmHg 59%
    21:00 +12°C° 0 mm 8 mps 662 mmHg 65%
    22:00 +12°C° 0 mm 8 mps 662 mmHg 68%
    23:00 +11°C° 0 mm 8 mps 661 mmHg 71%

    26 May, Sunday

    Time Temperature Precipitation Wind Pressure Humidity
    00:00 +11°C° 0 mm 8 mps 661 mmHg 73%
    01:00 +10°C° 0 mm 8 mps 661 mmHg 75%
    02:00 +10°C° 0 mm 9 mps 660 mmHg 77%
    03:00 +10°C° 0 mm 9 mps 660 mmHg 78%
    04:00 +10°C° 0 mm 9 mps 660 mmHg 77%
    05:00 +10°C° 0 mm 9 mps 661 mmHg 77%
    06:00 +10°C° 0 mm 9 mps 661 mmHg 76%
    07:00 +10°C° 0 mm 9 mps 661 mmHg 74%
    08:00 +11°C° 0 mm 9 mps 661 mmHg 71%
    09:00 +12°C° 0 mm 9 mps 662 mmHg 69%
    10:00 +13°C° 0 mm 9 mps 662 mmHg 60%
    11:00 +16°C° 0 mm 9 mps 663 mmHg 51%
    12:00 +18°C° 0 mm 9 mps 663 mmHg 41%
    13:00 +18°C° 0 mm 9 mps 663 mmHg 42%
    14:00 +18°C° 0 mm 9 mps 663 mmHg 42%
    15:00 +18°C° 0 mm 9 mps 662 mmHg 42%
    16:00 +18°C° 0 mm 9 mps 662 mmHg 45%
    17:00 +17°C° 0 mm 8 mps 662 mmHg 48%
    18:00 +16°C° 0 mm 8 mps 662 mmHg 51%
    19:00 +15°C° 0 mm 7 mps 663 mmHg 54%
    20:00 +14°C° 0 mm 7 mps 663 mmHg 57%
    21:00 +13°C° 0 mm 6 mps 663 mmHg 59%
    22:00 +13°C° 0 mm 5 mps 663 mmHg 60%
    23:00 +12°C° 0 mm 4 mps 663 mmHg 61%

    27 May, Monday

    Time Temperature Precipitation Wind Pressure Humidity
    00:00 +13°C° 0 mm 2 mps 663 mmHg 62%
    01:00 +12°C° 0 mm 2 mps 662 mmHg 62%
    02:00 +12°C° 0 mm 2 mps 662 mmHg 63%
    03:00 +10°C° 0 mm 2 mps 661 mmHg 64%
    04:00 +12°C° 0 mm 2 mps 662 mmHg 61%
    05:00 +12°C° 0 mm 2 mps 662 mmHg 59%
    06:00 +13°C° 0 mm 2 mps 662 mmHg 56%
    07:00 +13°C° 0 mm 3 mps 663 mmHg 49%
    08:00 +16°C° 0 mm 3 mps 663 mmHg 42%
    09:00 +17°C° 0 mm 3 mps 664 mmHg 35%
    10:00 +19°C° 0 mm 3 mps 663 mmHg 31%
    11:00 +20°C° 0 mm 3 mps 663 mmHg 27%
    12:00 +21°C° 0 mm 3 mps 663 mmHg 24%
    13:00 +22°C° 0 mm 4 mps 663 mmHg 22%
    14:00 +23°C° 0 mm 4 mps 663 mmHg 21%
    15:00 +23°C° 0 mm 4 mps 663 mmHg 20%
    16:00 +23°C° 0 mm 4 mps 662 mmHg 21%
    17:00 +24°C° 0 mm 3 mps 662 mmHg 21%
    18:00 +24°C° 0 mm 3 mps 662 mmHg 22%
    19:00 +22°C° 0 mm 3 mps 662 mmHg 24%
    20:00 +21°C° 0 mm 2 mps 662 mmHg 26%
    21:00 +20°C° 0 mm 2 mps 662 mmHg 27%
    22:00 +20°C° 0 mm 3 mps 662 mmHg 28%
    23:00 +19°C° 0 mm 4 mps 662 mmHg 29%

    28 May, Tuesday

    Time Temperature Precipitation Wind Pressure Humidity
    00:00 +19°C° 0 mm 5 mps 661 mmHg 30%
    01:00 +17°C° 0 mm 6 mps 661 mmHg 32%
    02:00 +17°C° 0 mm 7 mps 661 mmHg 34%
    03:00 +17°C° 0 mm 7 mps 661 mmHg 36%
    04:00 +17°C° 0 mm 8 mps 661 mmHg 36%
    05:00 +17°C° 0 mm 8 mps 661 mmHg 35%
    06:00 +17°C° 0 mm 9 mps 661 mmHg 35%
    07:00 +19°C° 0 mm 9 mps 661 mmHg 33%
    08:00 +22°C° 0 mm 10 mps 661 mmHg 30%
    09:00 +24°C° 0 mm 11 mps 662 mmHg 28%
    10:00 +27°C° 0 mm 11 mps 662 mmHg 24%
    11:00 +29°C° 0 mm 11 mps 662 mmHg 20%
    12:00 +32°C° 0 mm 10 mps 662 mmHg 16%
    13:00 +32°C° 0 mm 10 mps 661 mmHg 17%
    14:00 +31°C° 0 mm 9 mps 661 mmHg 17%
    15:00 +31°C° 0 mm 9 mps 660 mmHg 18%
    16:00 +29°C° 0.3 mm 7 mps 660 mmHg 21%
    17:00 +28°C° 0.3 mm 6 mps 660 mmHg 23%
    18:00 +27°C° 0.3 mm 4 mps 660 mmHg 26%
    19:00 +26°C° 0.4 mm 4 mps 660 mmHg 31%
    20:00 +25°C° 0.4 mm 4 mps 660 mmHg 36%
    21:00 +23°C° 0.4 mm 4 mps 660 mmHg 41%
    22:00 +22°C° 0.2 mm 4 mps 660 mmHg 45%
    23:00 +21°C° 0.2 mm 3 mps 660 mmHg 48%
    Show more